Weather History for KCEF - May, 2013

Change the Weather History Date:

Sunday, May 12, 2013

  Actual Average Record
Temperature  
Mean Temperature 58 °F -  
Max Temperature 68 °F 66 °F 88 °F (2014)
Min Temperature 48 °F 44 °F 34 °F (2012)
Degree Days  
Heating Degree Days 6    
Growing Degree Days 8 (Base 50)    
Moisture  
Dew Point 50 °F    
Average Humidity 74    
Maximum Humidity 100    
Minimum Humidity 34    
Precipitation  
Precipitation 0.00 in - - ()
Sea Level Pressure  
Sea Level Pressure 29.67 in    
Wind  
Wind Speed 7 mph (WNW)    
Max Wind Speed 22 mph    
Max Gust Speed 33 mph    
Visibility 9 miles    
Events Rain    
Averages and records for this station are not official NWS values.
T = Trace of Precipitation, MM = Missing Value Source: NWS Daily Summary

Daily Weather History Graph

Daily Weather History Graph

Search for Another Location

Airport or City:

Trip Planner

Search our weather history database for the weather conditions in past years. The results will help you decide how hot, cold, wet, or windy it might be!

Date:

Astronomy

May. 12, 2013 Rise Set
Actual Time 5:32 AM EDT 8:01 PM EDT
Civil Twilight 5:00 AM EDT 8:33 PM EDT
Nautical Twilight 4:20 AM EDT 9:13 PM EDT
Astronomical Twilight 3:36 AM EDT 9:57 PM EDT
Moon 7:24 AM EDT (5/12) 10:26 PM EDT (5/12)
Length of Visible Light 15h 33m
Length of Day
14h 29m
Waxing Crescent, 6% of the Moon is Illuminated
May 12
Waxing Crescent
May 18
First Quarter
May 25
Full
May 31
Last Quarter
Jun 8
New

Hourly Weather History & Observations

Time (EDT) Temp. Dew Point Humidity Pressure Visibility Wind Dir Wind Speed Gust Speed Precip Events Conditions
12:58 AM 60.8 °F 60.4 °F 99% 29.67 in 8.0 mi South 5.8 mph - N/A   Overcast
1:39 AM 60.8 °F 60.8 °F 100% 29.67 in 6.0 mi South 9.2 mph - N/A   Overcast
1:58 AM 60.4 °F 60.1 °F 99% 29.66 in 7.0 mi South 8.1 mph - N/A   Overcast
2:19 AM 60.8 °F 60.8 °F 100% 29.66 in 7.0 mi South 6.9 mph - N/A   Overcast
2:58 AM 60.6 °F 60.3 °F 99% 29.66 in 6.0 mi SW 4.6 mph - N/A   Overcast
3:14 AM 60.8 °F 60.8 °F 100% 29.64 in 7.0 mi SSE 3.5 mph - N/A   Light Drizzle
3:15 AM 60.8 °F 60.8 °F 100% 29.64 in 7.0 mi SSE 4.6 mph - N/A   Overcast
3:18 AM 60.8 °F 60.8 °F 100% 29.64 in 7.0 mi South 4.6 mph - N/A Rain Light Rain
3:33 AM 60.8 °F 60.8 °F 100% 29.63 in 6.0 mi SW 2.3 mph - N/A   Overcast
3:36 AM 60.8 °F 60.8 °F 100% 29.63 in 6.0 mi WSW 4.6 mph - N/A   Overcast
3:37 AM 60.8 °F 60.8 °F 100% 29.63 in 6.0 mi WSW 4.6 mph - N/A   Overcast
3:58 AM 60.1 °F 59.4 °F 97% 29.64 in 8.0 mi WNW 6.9 mph - 0.00 in   Overcast
4:00 AM 59.0 °F 57.2 °F 94% 29.64 in 10.0 mi WNW 6.9 mph - N/A   Overcast
4:05 AM 59.0 °F 55.4 °F 88% 29.64 in 10.0 mi WNW 8.1 mph - N/A   Overcast
4:08 AM 59.0 °F 55.4 °F 88% 29.64 in 10.0 mi NW 6.9 mph - N/A   Overcast
4:09 AM 59.0 °F 55.4 °F 88% 29.64 in 10.0 mi NW 5.8 mph - N/A   Overcast
4:20 AM 59.0 °F 55.4 °F 88% 29.65 in 10.0 mi WNW 6.9 mph - N/A   Overcast
4:58 AM 57.9 °F 54.3 °F 88% 29.64 in 10.0 mi NNW 4.6 mph - N/A   Overcast
5:06 AM 57.2 °F 55.4 °F 94% 29.64 in 10.0 mi NW 3.5 mph - N/A   Overcast
5:58 AM 57.4 °F 51.1 °F 79% 29.66 in 10.0 mi NW 6.9 mph - N/A   Overcast
6:58 AM 57.2 °F 50.5 °F 78% 29.66 in 10.0 mi North 4.6 mph - N/A   Overcast
7:58 AM 57.7 °F 50.4 °F 76% 29.67 in 10.0 mi NNW 3.5 mph - N/A   Overcast
8:58 AM 57.4 °F 50.2 °F 77% 29.66 in 10.0 mi North 5.8 mph - N/A   Overcast
9:58 AM 59.2 °F 48.0 °F 66% 29.66 in 10.0 mi NW 8.1 mph - N/A   Overcast
10:58 AM 62.6 °F 49.1 °F 61% 29.65 in 10.0 mi WNW 5.8 mph - N/A   Mostly Cloudy
11:31 AM 62.6 °F 48.2 °F 59% 29.63 in 10.0 mi Variable 1.2 mph - N/A   Light Drizzle
11:58 AM 63.9 °F 48.6 °F 57% 29.63 in 10.0 mi Variable 2.3 mph - N/A   Mostly Cloudy
12:58 PM 65.7 °F 48.7 °F 54% 29.62 in 10.0 mi Variable 6.9 mph - N/A   Scattered Clouds
1:58 PM 67.5 °F 45.3 °F 45% 29.61 in 10.0 mi WSW 13.8 mph 19.6 mph N/A   Mostly Cloudy
2:58 PM 64.6 °F 45.5 °F 50% 29.63 in 10.0 mi WNW 21.9 mph 33.4 mph N/A   Scattered Clouds
3:58 PM 61.7 °F 42.1 °F 49% 29.66 in 10.0 mi NW 16.1 mph - N/A   Scattered Clouds
4:58 PM 61.2 °F 38.7 °F 43% 29.67 in 10.0 mi WNW 11.5 mph 25.3 mph N/A   Overcast
5:58 PM 61.5 °F 35.6 °F 38% 29.69 in 10.0 mi NW 20.7 mph 24.2 mph N/A   Clear
6:58 PM 59.2 °F 30.9 °F 34% 29.72 in 10.0 mi NW 10.4 mph 20.7 mph N/A   Clear
7:58 PM 55.9 °F 31.5 °F 39% 29.74 in 10.0 mi NW 6.9 mph - N/A   Overcast
8:58 PM 54.9 °F 27.0 °F 34% 29.77 in 10.0 mi NW 11.5 mph - N/A   Mostly Cloudy
9:58 PM 52.9 °F 25.0 °F 34% 29.81 in 10.0 mi WNW 16.1 mph 21.9 mph N/A   Clear
10:58 PM 50.4 °F 26.6 °F 40% 29.83 in 10.0 mi WNW 18.4 mph 21.9 mph N/A   Clear
11:58 PM 48.4 °F 28.8 °F 47% 29.85 in 10.0 mi West 12.7 mph - N/A   Clear